Location: ??????
(38.0677°N, 22.9870°E)
Time: 16:24:40
(UTC+00:00)

ASTEX 1 - Pass Details

Date: 23 May 2024
Orbit: 715 x 740 km, 92.7° (Epoch: 23 June)

Event Time Altitude Azimuth Distance (km) Brightness Sun altitude
Rises 02:24:42 0° 183° (S) 3,150 6.3 -8.7°
Reaches altitude 10° 02:27:02 10° 187° (S) 2,229 5.5 -8.3°
Maximum altitude 02:31:53 58° 266° (W) 850 3.5 -7.5°
Drops below altitude 10° 02:36:45 10° 346° (NNW) 2,229 6.2 -6.7°
Sets 02:39:05 0° 350° (N) 3,151 7.0 -6.3°
